User: anonymous   Login
Location: Castelbiague
(43.0361°N, 0.9246°E)
Time: 22:21:28
(UTC+00:00)
Language:

FENGYUN 1C DEB - Orbit

View from above orbital plane
View from above orbital plane
View from above satellite
View from above satellite

Ground track
Ground track

The orbit data is extracted from the following two-line orbital elements,

1 30283U 99025YU  22028.27889156  .00000287  00000-0  18902-3 0  9991
2 30283  98.8394  47.3902 0189801  20.7138  39.2417 14.00789969768800
Epoch (UTC): 28 January 2022 06:41:36
Eccentricity: 0.0189801
inclination: 98.8394°
perigee height: 753 km
apogee height: 1029 km
right ascension of ascending node: 47.3902°
argument of perigee: 20.7138°
revolutions per day: 14.00789969
mean anomaly at epoch: 39.2417°
orbit number at epoch: 76880

The dashed part of the orbit path shows where the satellite is in the earth's shadow,  

DLR